Weather History for DeKalb, IL

Change the Weather History Date:

Saturday, January 26, 2013

  Actual Average (KARR) Record (KARR)
Temperature  
Mean Temperature 14 °F 21 °F  
Max Temperature 23 °F 29 °F 52 °F (2002)
Min Temperature 6 °F 12 °F -9 °F (2003)
Degree Days  
Heating Degree Days 50 44  
Month to date heating degree days 1146  
Since 1 July heating degree days 3795  
Cooling Degree Days 0 0  
Month to date cooling degree days 0  
Year to date cooling degree days 0  
Moisture  
Dew Point 7 °F    
Average Humidity 66    
Maximum Humidity 81    
Minimum Humidity 48    
Precipitation  
Precipitation 0.00 in 0.06 in 0.16 in (2008)
Month to date precipitation 1.17  
Year to date precipitation 1.17  
Sea Level Pressure  
Sea Level Pressure 30.31 in    
Wind  
Wind Speed 6 mph (NW)    
Max Wind Speed 10 mph    
Max Gust Speed -    
Visibility 10 miles    
Events      
T = Trace of Precipitation, MM = Missing Value Source: NWS Daily Summary

Daily Weather History Graph

Daily Weather History Graph

Search for Another Location

Airport:

Trip Planner

Search our weather history database for the weather conditions in past years. The results will help you decide how hot, cold, wet, or windy it might be!

Date:

Astronomy

Jan. 26, 2013 Rise Set
Actual Time 7:12 AM CST 5:02 PM CST
Civil Twilight 6:42 AM CST 5:32 PM CST
Nautical Twilight 6:09 AM CST 6:06 PM CST
Astronomical Twilight 5:36 AM CST 6:39 PM CST
Moon 4:58 PM CST (1/26) 6:30 AM CST (1/26)
Length of Visible Light 10h 49m
Length of Day
9h 49m
Full, 100% of the Moon is Illuminated
Jan 26
Full
Jan 26
Full
Feb 3
Last Quarter
Feb 10
New
Feb 17
First Quarter

Hourly Weather History & Observations

Time (CST) Temp. Windchill Dew Point Humidity Pressure Visibility Wind Dir Wind Speed Gust Speed Precip Events Conditions
12:15 AM 15.8 °F 6.1 °F 6.8 °F 68% 30.18 in 10.0 mi NW 6.9 mph - N/A   Clear
12:35 AM 14.7 °F 2.9 °F 6.8 °F 71% 30.18 in 10.0 mi NNW 9.2 mph - N/A   Clear
12:55 AM 14.0 °F 6.5 °F 6.3 °F 71% 30.19 in 10.0 mi NW 4.6 mph - N/A   Clear
1:15 AM 13.3 °F 3.0 °F 6.1 °F 73% 30.20 in 10.0 mi NW 6.9 mph - N/A   Clear
1:35 AM 13.1 °F 5.4 °F 5.7 °F 72% 30.20 in 10.0 mi NW 4.6 mph - N/A   Clear
1:55 AM 13.1 °F 4.0 °F 5.7 °F 72% 30.20 in 10.0 mi NW 5.8 mph - N/A   Clear
2:15 AM 12.2 °F 2.9 °F 5.0 °F 73% 30.21 in 10.0 mi NW 5.8 mph - N/A   Clear
2:35 AM 10.0 °F -2.9 °F 4.8 °F 79% 30.22 in 10.0 mi NW 9.2 mph - N/A   Clear
2:55 AM 11.8 °F 0.3 °F 5.0 °F 74% 30.22 in 10.0 mi NNW 8.1 mph - N/A   Clear
3:15 AM 11.3 °F 3.3 °F 4.8 °F 75% 30.23 in 10.0 mi NW 4.6 mph - N/A   Clear
3:35 AM 8.6 °F -1.3 °F 3.0 °F 78% 30.23 in 10.0 mi NW 5.8 mph - N/A   Clear
3:55 AM 10.2 °F -0.6 °F 4.6 °F 78% 30.24 in 10.0 mi NW 6.9 mph - N/A   Clear
4:15 AM 10.9 °F -0.8 °F 4.5 °F 75% 30.24 in 10.0 mi NW 8.1 mph - N/A   Clear
4:35 AM 10.4 °F 2.2 °F 3.9 °F 75% 30.24 in 10.0 mi NW 4.6 mph - N/A   Clear
4:55 AM 9.0 °F 0.6 °F 3.2 °F 77% 30.25 in 10.0 mi NW 4.6 mph - N/A   Clear
5:15 AM 10.0 °F 0.4 °F 4.1 °F 77% 30.26 in 10.0 mi NW 5.8 mph - N/A   Clear
5:35 AM 9.0 °F -0.9 °F 3.2 °F 77% 30.27 in 10.0 mi NW 5.8 mph - N/A   Clear
5:55 AM 6.3 °F -6.5 °F 1.4 °F 80% 30.28 in 10.0 mi WNW 8.1 mph - N/A   Clear
6:15 AM 7.2 °F -4.3 °F 2.5 °F 81% 30.29 in 10.0 mi WNW 6.9 mph - N/A   Clear
6:35 AM 7.2 °F -5.4 °F 2.5 °F 81% 30.30 in 10.0 mi WNW 8.1 mph - N/A   Clear
6:55 AM 6.8 °F -4.8 °F 2.1 °F 81% 30.31 in 10.0 mi WNW 6.9 mph - N/A   Clear
7:15 AM 7.5 °F -2.6 °F 2.7 °F 81% 30.31 in 10.0 mi NW 5.8 mph - N/A   Clear
7:35 AM 7.7 °F -2.4 °F 2.5 °F 79% 30.32 in 10.0 mi NW 5.8 mph - N/A   Clear
7:55 AM 8.4 °F -1.6 °F 3.2 °F 79% 30.32 in 10.0 mi NW 5.8 mph - N/A   Clear
8:15 AM 9.0 °F -0.9 °F 3.6 °F 79% 30.33 in 10.0 mi NW 5.8 mph - N/A   Clear
8:35 AM 10.0 °F 0.4 °F 4.1 °F 77% 30.34 in 10.0 mi NW 5.8 mph - N/A   Clear
8:55 AM 11.7 °F 1.1 °F 5.4 °F 76% 30.35 in 10.0 mi NW 6.9 mph - N/A   Clear
9:15 AM 12.6 °F 1.1 °F 5.7 °F 74% 30.35 in 10.0 mi NNW 8.1 mph - N/A   Clear
9:35 AM 13.8 °F 2.7 °F 6.6 °F 73% 30.35 in 10.0 mi NNW 8.1 mph - N/A   Clear
9:55 AM 14.0 °F 5.1 °F 6.3 °F 71% 30.36 in 10.0 mi NW 5.8 mph - N/A   Clear
10:15 AM 14.9 °F 7.5 °F 6.4 °F 69% 30.37 in 10.0 mi NNW 4.6 mph - N/A   Clear
10:35 AM 16.2 °F 9.0 °F 7.0 °F 67% 30.37 in 10.0 mi NNW 4.6 mph - N/A   Clear
10:55 AM 16.7 °F 11.2 °F 6.6 °F 65% 30.36 in 10.0 mi North 3.5 mph - N/A   Clear
11:15 AM 18.0 °F 11.1 °F 7.7 °F 64% 30.36 in 10.0 mi North 4.6 mph - N/A   Clear
11:35 AM 18.7 °F 13.5 °F 7.0 °F 60% 30.36 in 10.0 mi North 3.5 mph - N/A   Clear
11:55 AM 19.0 °F - 5.9 °F 57% 30.35 in 10.0 mi Calm Calm - N/A   Clear
12:15 PM 19.8 °F - 5.9 °F 55% 30.35 in 10.0 mi Calm Calm - N/A   Clear
12:35 PM 20.3 °F - 4.3 °F 50% 30.35 in 10.0 mi Calm Calm - N/A   Clear
12:55 PM 21.2 °F - 4.1 °F 48% 30.36 in 10.0 mi Calm Calm - N/A   Clear
1:15 PM 21.6 °F - 4.6 °F 48% 30.34 in 10.0 mi Calm Calm - N/A   Clear
1:35 PM 22.5 °F - 5.9 °F 49% 30.35 in 10.0 mi Calm Calm - N/A   Clear
1:55 PM 23.0 °F 15.8 °F 6.8 °F 50% 30.35 in 10.0 mi WNW 5.8 mph - N/A   Clear
2:15 PM 23.0 °F 15.8 °F 6.3 °F 49% 30.34 in 10.0 mi SSW 5.8 mph - N/A   Clear
2:35 PM 22.6 °F - 5.5 °F 48% 30.34 in 10.0 mi Calm Calm - N/A   Clear
2:55 PM 23.0 °F - 5.7 °F 48% 30.35 in 10.0 mi Calm Calm - N/A   Clear
3:15 PM 23.2 °F - 6.4 °F 49% 30.34 in 10.0 mi Calm Calm - N/A   Clear
3:35 PM 22.8 °F 16.7 °F 5.7 °F 48% 30.35 in 10.0 mi South 4.6 mph - N/A   Clear
3:55 PM 22.5 °F - 5.9 °F 49% 30.35 in 10.0 mi Calm Calm - N/A   Clear
4:15 PM 22.1 °F - 5.9 °F 50% 30.34 in 10.0 mi Calm Calm - N/A   Clear
4:35 PM 21.6 °F - 6.3 °F 52% 30.34 in 10.0 mi Calm Calm - N/A   Clear
4:55 PM 21.0 °F - 7.3 °F 56% 30.35 in 10.0 mi Calm Calm - N/A   Clear
5:15 PM 19.6 °F 14.5 °F 8.4 °F 62% 30.35 in 10.0 mi SSE 3.5 mph - N/A   Clear
5:35 PM 20.7 °F 14.2 °F 11.1 °F 67% 30.35 in 10.0 mi SSE 4.6 mph - N/A   Mostly Cloudy
5:55 PM 21.2 °F 13.6 °F 10.4 °F 63% 30.36 in 10.0 mi SSE 5.8 mph - N/A   Overcast
6:15 PM 21.6 °F 14.0 °F 10.4 °F 62% 30.34 in 10.0 mi SE 5.8 mph - N/A   Overcast
6:35 PM 21.6 °F 13.0 °F 9.3 °F 59% 30.34 in 10.0 mi SE 6.9 mph - N/A   Overcast
6:55 PM 21.9 °F 15.7 °F 9.7 °F 59% 30.35 in 10.0 mi SSE 4.6 mph - N/A   Overcast
7:15 PM 21.7 °F 17.0 °F 9.9 °F 60% 30.35 in 10.0 mi SE 3.5 mph - N/A   Overcast
7:35 PM 21.6 °F 15.3 °F 9.3 °F 59% 30.34 in 10.0 mi SE 4.6 mph - N/A   Overcast
7:55 PM 21.2 °F 13.6 °F 10.4 °F 63% 30.34 in 10.0 mi SE 5.8 mph - N/A   Overcast
8:15 PM 21.2 °F 14.9 °F 10.9 °F 65% 30.35 in 10.0 mi SSE 4.6 mph - N/A   Scattered Clouds
8:35 PM 21.7 °F 14.3 °F 11.1 °F 64% 30.34 in 10.0 mi SE 5.8 mph - N/A   Mostly Cloudy
8:55 PM 22.1 °F 14.7 °F 11.7 °F 64% 30.34 in 10.0 mi SE 5.8 mph - N/A   Mostly Cloudy
9:15 PM 22.5 °F 14.1 °F 12.0 °F 64% 30.34 in 10.0 mi SE 6.9 mph - N/A   Mostly Cloudy
9:35 PM 22.6 °F 14.3 °F 12.0 °F 64% 30.34 in 10.0 mi SE 6.9 mph - N/A   Mostly Cloudy
9:55 PM 22.6 °F 13.4 °F 11.8 °F 63% 30.34 in 10.0 mi SE 8.1 mph - N/A   Mostly Cloudy
10:15 PM 22.8 °F 13.6 °F 11.7 °F 62% 30.35 in 10.0 mi ESE 8.1 mph - N/A   Mostly Cloudy
10:35 PM 23.0 °F 14.7 °F 11.1 °F 60% 30.34 in 10.0 mi ESE 6.9 mph - N/A   Scattered Clouds
10:55 PM 23.2 °F 12.6 °F 11.3 °F 60% 30.34 in 10.0 mi SE 10.4 mph - N/A   Mostly Cloudy
11:15 PM 23.4 °F 13.5 °F 11.7 °F 61% 30.34 in 10.0 mi SE 9.2 mph - N/A   Mostly Cloudy
11:35 PM 23.0 °F 12.4 °F 12.2 °F 63% 30.33 in 10.0 mi SE 10.4 mph - N/A   Scattered Clouds
11:55 PM 22.6 °F 12.6 °F 13.5 °F 68% 30.34 in 10.0 mi SE 9.2 mph - N/A   Scattered Clouds